Time,TemperatureF,DewpointF,PressureIn,WindDirection,WindDirectionDegrees,WindSpeedMPH,WindSpeedGustMPH,Humidity,HourlyPrecipIn,Conditions,Clouds,dailyrainin,SoftwareType,DateUTC
2013-02-07 00:02:00,23.5,3.9,30.35,WNW,292,0.0,4.0,42,0.00,,,0.00,meteohub,2013-02-07 05:02:00,
2013-02-07 00:07:00,23.5,3.9,30.35,SW,225,1.0,5.0,42,0.00,,,0.00,meteohub,2013-02-07 05:07:00,
2013-02-07 00:12:00,23.4,3.7,30.35,WSW,248,3.0,5.0,42,0.00,,,0.00,meteohub,2013-02-07 05:12:00,
2013-02-07 00:22:00,23.0,3.9,30.35,NE,45,0.0,4.0,43,0.00,,,0.00,meteohub,2013-02-07 05:22:00,
2013-02-07 00:27:00,22.8,3.7,30.35,WSW,248,0.0,4.0,43,0.00,,,0.00,meteohub,2013-02-07 05:27:00,
2013-02-07 00:32:00,22.8,3.7,30.35,WNW,292,0.0,4.0,43,0.00,,,0.00,meteohub,2013-02-07 05:32:00,
2013-02-07 00:37:00,22.6,3.6,30.35,WSW,248,2.0,2.0,43,0.00,,,0.00,meteohub,2013-02-07 05:37:00,
2013-02-07 00:42:00,22.6,3.6,30.35,SSW,202,1.0,4.0,43,0.00,,,0.00,meteohub,2013-02-07 05:42:00,
2013-02-07 00:47:00,22.6,3.6,30.35,WSW,248,0.0,4.0,43,0.00,,,0.00,meteohub,2013-02-07 05:47:00,
2013-02-07 00:52:00,22.6,3.6,30.35,SW,225,0.0,4.0,43,0.00,,,0.00,meteohub,2013-02-07 05:52:00,
2013-02-07 00:57:00,22.5,3.4,30.35,NW,315,0.0,3.0,43,0.00,,,0.00,meteohub,2013-02-07 05:57:00,
2013-02-07 01:02:00,22.3,3.2,30.35,NNW,338,0.0,2.0,43,0.00,,,0.00,meteohub,2013-02-07 06:02:00,
2013-02-07 01:07:00,22.3,3.2,30.35,NNW,338,2.0,2.0,43,0.00,,,0.00,meteohub,2013-02-07 06:07:00,
2013-02-07 01:12:00,22.5,3.4,30.35,WSW,248,0.0,2.0,43,0.00,,,0.00,meteohub,2013-02-07 06:12:00,
2013-02-07 01:17:00,22.3,3.2,30.35,SW,225,2.0,2.0,43,0.00,,,0.00,meteohub,2013-02-07 06:17:00,
2013-02-07 01:22:00,22.3,3.2,30.35,WSW,248,0.0,2.0,43,0.00,,,0.00,meteohub,2013-02-07 06:22:00,
2013-02-07 01:27:00,22.1,3.0,30.35,WSW,248,1.0,2.0,43,0.00,,,0.00,meteohub,2013-02-07 06:27:00,
2013-02-07 01:32:00,21.9,2.8,30.38,WSW,248,2.0,2.0,43,0.00,,,0.00,meteohub,2013-02-07 06:32:00,
2013-02-07 01:37:00,21.9,2.8,30.38,WNW,292,2.0,2.0,43,0.00,,,0.00,meteohub,2013-02-07 06:37:00,
2013-02-07 01:42:00,21.7,2.7,30.38,WNW,292,2.0,2.0,43,0.00,,,0.00,meteohub,2013-02-07 06:42:00,
2013-02-07 01:47:00,21.6,2.5,30.38,SW,225,2.0,2.0,43,0.00,,,0.00,meteohub,2013-02-07 06:47:00,
2013-02-07 01:52:00,21.4,2.5,30.38,WNW,292,0.0,2.0,43,0.00,,,0.00,meteohub,2013-02-07 06:52:00,
2013-02-07 01:57:00,21.2,2.3,30.38,WNW,292,0.0,2.0,43,0.00,,,0.00,meteohub,2013-02-07 06:57:00,
2013-02-07 02:02:00,21.2,2.3,30.41,WNW,292,0.0,2.0,43,0.00,,,0.00,meteohub,2013-02-07 07:02:00,
2013-02-07 02:07:00,21.0,2.1,30.41,West,270,0.0,0.0,43,0.00,,,0.00,meteohub,2013-02-07 07:07:00,
2013-02-07 02:12:00,20.8,1.9,30.41,WNW,292,0.0,0.0,43,0.00,,,0.00,meteohub,2013-02-07 07:12:00,
2013-02-07 02:17:00,20.7,1.8,30.41,ENE,68,0.0,0.0,43,0.00,,,0.00,meteohub,2013-02-07 07:17:00,
2013-02-07 02:22:00,20.8,1.9,30.41,East,90,0.0,0.0,43,0.00,,,0.00,meteohub,2013-02-07 07:22:00,
2013-02-07 02:27:00,20.7,1.8,30.41,South,180,0.0,0.0,43,0.00,,,0.00,meteohub,2013-02-07 07:27:00,
2013-02-07 02:32:00,20.7,1.8,30.38,WSW,248,0.0,1.0,43,0.00,,,0.00,meteohub,2013-02-07 07:32:00,
2013-02-07 02:37:00,20.7,1.8,30.38,SSW,202,0.0,1.0,43,0.00,,,0.00,meteohub,2013-02-07 07:37:00,
2013-02-07 02:42:00,20.5,1.6,30.38,SSW,202,0.0,1.0,43,0.00,,,0.00,meteohub,2013-02-07 07:42:00,
2013-02-07 02:47:00,20.3,1.4,30.41,SSW,202,0.0,0.0,43,0.00,,,0.00,meteohub,2013-02-07 07:47:00,
2013-02-07 02:52:00,20.3,1.4,30.41,SSW,202,0.0,0.0,43,0.00,,,0.00,meteohub,2013-02-07 07:52:00,
2013-02-07 02:57:00,20.1,1.8,30.41,SSW,202,0.0,0.0,44,0.00,,,0.00,meteohub,2013-02-07 07:57:00,
2013-02-07 03:02:00,20.1,1.8,30.41,SSE,158,2.0,0.0,44,0.00,,,0.00,meteohub,2013-02-07 08:02:00,
2013-02-07 03:07:00,19.9,1.6,30.41,SSE,158,1.0,2.0,44,0.00,,,0.00,meteohub,2013-02-07 08:07:00,
2013-02-07 03:12:00,19.9,1.6,30.41,ESE,112,0.0,2.0,44,0.00,,,0.00,meteohub,2013-02-07 08:12:00,
2013-02-07 03:17:00,19.8,1.4,30.41,South,180,0.0,2.0,44,0.00,,,0.00,meteohub,2013-02-07 08:17:00,
2013-02-07 03:22:00,19.8,1.4,30.41,South,180,0.0,2.0,44,0.00,,,0.00,meteohub,2013-02-07 08:22:00,
2013-02-07 03:27:00,19.4,1.0,30.41,South,180,0.0,2.0,44,0.00,,,0.00,meteohub,2013-02-07 08:27:00,
2013-02-07 03:32:00,19.4,1.0,30.41,South,180,0.0,0.0,44,0.00,,,0.00,meteohub,2013-02-07 08:32:00,
2013-02-07 03:37:00,19.2,0.9,30.41,South,180,0.0,0.0,44,0.00,,,0.00,meteohub,2013-02-07 08:37:00,
2013-02-07 03:42:00,19.2,1.4,30.41,South,180,0.0,0.0,45,0.00,,,0.00,meteohub,2013-02-07 08:42:00,
2013-02-07 03:47:00,19.2,1.4,30.41,South,180,0.0,0.0,45,0.00,,,0.00,meteohub,2013-02-07 08:47:00,
2013-02-07 03:52:00,19.2,1.4,30.44,South,180,0.0,0.0,45,0.00,,,0.00,meteohub,2013-02-07 08:52:00,
2013-02-07 03:57:00,19.0,1.2,30.44,ESE,112,0.0,0.0,45,0.00,,,0.00,meteohub,2013-02-07 08:57:00,
2013-02-07 04:02:00,19.0,1.2,30.44,ESE,112,0.0,0.0,45,0.00,,,0.00,meteohub,2013-02-07 09:02:00,
2013-02-07 04:07:00,18.9,1.0,30.44,ESE,112,0.0,0.0,45,0.00,,,0.00,meteohub,2013-02-07 09:07:00,
2013-02-07 04:12:00,18.7,0.9,30.44,ESE,112,0.0,0.0,45,0.00,,,0.00,meteohub,2013-02-07 09:12:00,
2013-02-07 04:17:00,18.7,0.9,30.44,ESE,112,0.0,0.0,45,0.00,,,0.00,meteohub,2013-02-07 09:17:00,
2013-02-07 04:22:00,18.7,0.9,30.44,ESE,112,0.0,0.0,45,0.00,,,0.00,meteohub,2013-02-07 09:22:00,
2013-02-07 04:27:00,18.7,0.9,30.44,ESE,112,1.0,2.0,45,0.00,,,0.00,meteohub,2013-02-07 09:27:00,
2013-02-07 04:32:00,18.7,0.9,30.44,ESE,112,0.0,2.0,45,0.00,,,0.00,meteohub,2013-02-07 09:32:00,
2013-02-07 04:37:00,18.5,0.7,30.44,ESE,112,0.0,2.0,45,0.00,,,0.00,meteohub,2013-02-07 09:37:00,
2013-02-07 04:42:00,18.1,0.9,30.44,ESE,112,0.0,2.0,46,0.00,,,0.00,meteohub,2013-02-07 09:42:00,
2013-02-07 04:47:00,17.8,0.5,30.44,ESE,112,0.0,1.0,46,0.00,,,0.00,meteohub,2013-02-07 09:47:00,
2013-02-07 04:52:00,17.6,0.9,30.44,ESE,112,0.0,0.0,47,0.00,,,0.00,meteohub,2013-02-07 09:52:00,
2013-02-07 04:57:00,17.4,0.7,30.44,ESE,112,0.0,0.0,47,0.00,,,0.00,meteohub,2013-02-07 09:57:00,
2013-02-07 05:02:00,17.4,0.7,30.44,ESE,112,0.0,0.0,47,0.00,,,0.00,meteohub,2013-02-07 10:02:00,
2013-02-07 05:12:00,17.4,0.7,30.44,ESE,112,0.0,0.0,47,0.00,,,0.00,meteohub,2013-02-07 10:12:00,
2013-02-07 05:17:00,17.4,0.7,30.44,East,90,0.0,0.0,47,0.00,,,0.00,meteohub,2013-02-07 10:17:00,
2013-02-07 05:22:00,17.6,0.9,30.44,East,90,0.0,0.0,47,0.00,,,0.00,meteohub,2013-02-07 10:22:00,
2013-02-07 05:27:00,17.6,0.9,30.44,East,90,0.0,0.0,47,0.00,,,0.00,meteohub,2013-02-07 10:27:00,
2013-02-07 05:32:00,17.6,0.9,30.47,East,90,0.0,0.0,47,0.00,,,0.00,meteohub,2013-02-07 10:32:00,
2013-02-07 05:37:00,17.6,0.9,30.47,NE,45,0.0,0.0,47,0.00,,,0.00,meteohub,2013-02-07 10:37:00,
2013-02-07 05:42:00,17.6,0.9,30.47,ENE,68,0.0,0.0,47,0.00,,,0.00,meteohub,2013-02-07 10:42:00,
2013-02-07 05:47:00,17.6,0.9,30.47,ENE,68,0.0,0.0,47,0.00,,,0.00,meteohub,2013-02-07 10:47:00,
2013-02-07 05:52:00,17.4,0.7,30.47,East,90,0.0,0.0,47,0.00,,,0.00,meteohub,2013-02-07 10:52:00,
2013-02-07 05:57:00,17.4,0.7,30.47,East,90,0.0,0.0,47,0.00,,,0.00,meteohub,2013-02-07 10:57:00,
2013-02-07 06:02:00,17.1,0.3,30.47,East,90,0.0,0.0,47,0.00,,,0.00,meteohub,2013-02-07 11:02:00,
2013-02-07 06:07:00,16.7,0.5,30.47,East,90,0.0,0.0,48,0.00,,,0.00,meteohub,2013-02-07 11:07:00,
2013-02-07 06:12:00,16.7,0.5,30.47,ENE,68,0.0,0.0,48,0.00,,,0.00,meteohub,2013-02-07 11:12:00,
2013-02-07 06:17:00,16.7,0.5,30.47,ENE,68,1.0,0.0,48,0.00,,,0.00,meteohub,2013-02-07 11:17:00,
2013-02-07 06:22:00,16.5,0.3,30.47,East,90,0.0,2.0,48,0.00,,,0.00,meteohub,2013-02-07 11:22:00,
2013-02-07 06:27:00,16.5,0.3,30.47,SW,225,0.0,2.0,48,0.00,,,0.00,meteohub,2013-02-07 11:27:00,
2013-02-07 06:32:00,16.5,0.7,30.47,South,180,0.0,2.0,49,0.00,,,0.00,meteohub,2013-02-07 11:32:00,
2013-02-07 06:37:00,16.2,0.9,30.47,SSE,158,0.0,0.0,50,0.00,,,0.00,meteohub,2013-02-07 11:37:00,
2013-02-07 06:42:00,16.2,0.9,30.47,SSE,158,0.0,0.0,50,0.00,,,0.00,meteohub,2013-02-07 11:42:00,
2013-02-07 06:47:00,16.0,0.7,30.50,SSE,158,0.0,0.0,50,0.00,,,0.00,meteohub,2013-02-07 11:47:00,
2013-02-07 06:52:00,15.8,0.9,30.50,SSE,158,0.0,0.0,51,0.00,,,0.00,meteohub,2013-02-07 11:52:00,
2013-02-07 06:57:00,15.6,0.7,30.50,SSE,158,0.0,0.0,51,0.00,,,0.00,meteohub,2013-02-07 11:57:00,
2013-02-07 07:02:00,15.4,0.5,30.50,SSE,158,0.0,0.0,51,0.00,,,0.00,meteohub,2013-02-07 12:02:00,
2013-02-07 07:07:00,15.3,0.9,30.50,SSE,158,0.0,0.0,52,0.00,,,0.00,meteohub,2013-02-07 12:07:00,
2013-02-07 07:17:00,15.3,1.2,30.53,East,90,0.0,0.0,53,0.00,,,0.00,meteohub,2013-02-07 12:17:00,
2013-02-07 07:22:00,15.3,1.2,30.53,East,90,0.0,0.0,53,0.00,,,0.00,meteohub,2013-02-07 12:22:00,
2013-02-07 07:27:00,15.3,1.2,30.53,East,90,0.0,0.0,53,0.00,,,0.00,meteohub,2013-02-07 12:27:00,
2013-02-07 07:32:00,15.3,1.6,30.53,East,90,0.0,0.0,54,0.00,,,0.00,meteohub,2013-02-07 12:32:00,
2013-02-07 07:37:00,15.4,1.8,30.53,East,90,0.0,0.0,54,0.00,,,0.00,meteohub,2013-02-07 12:37:00,
2013-02-07 07:42:00,15.4,1.8,30.53,ESE,112,0.0,0.0,54,0.00,,,0.00,meteohub,2013-02-07 12:42:00,
2013-02-07 07:47:00,16.0,2.3,30.53,South,180,0.0,0.0,54,0.00,,,0.00,meteohub,2013-02-07 12:47:00,
2013-02-07 07:52:00,16.3,2.3,30.53,NNE,22,0.0,0.0,53,0.00,,,0.00,meteohub,2013-02-07 12:52:00,
2013-02-07 07:57:00,16.5,2.5,30.53,North,0,0.0,0.0,53,0.00,,,0.00,meteohub,2013-02-07 12:57:00,
2013-02-07 08:02:00,17.1,2.8,30.53,NNW,338,0.0,0.0,53,0.00,,,0.00,meteohub,2013-02-07 13:02:00,
2013-02-07 08:07:00,17.6,3.0,30.53,NNW,338,1.0,2.0,52,0.00,,,0.00,meteohub,2013-02-07 13:07:00,
2013-02-07 08:12:00,18.1,3.0,30.53,WSW,248,2.0,2.0,51,0.00,,,0.00,meteohub,2013-02-07 13:12:00,
2013-02-07 08:17:00,18.5,3.4,30.53,WNW,292,2.0,2.0,51,0.00,,,0.00,meteohub,2013-02-07 13:17:00,
2013-02-07 08:22:00,18.7,3.2,30.53,NNE,22,0.0,3.0,50,0.00,,,0.00,meteohub,2013-02-07 13:22:00,
2013-02-07 08:27:00,19.0,3.6,30.53,NW,315,0.0,3.0,50,0.00,,,0.00,meteohub,2013-02-07 13:27:00,
2013-02-07 08:32:00,19.4,3.4,30.53,NNE,22,3.0,3.0,49,0.00,,,0.00,meteohub,2013-02-07 13:32:00,
2013-02-07 08:37:00,19.6,3.6,30.53,NW,315,2.0,3.0,49,0.00,,,0.00,meteohub,2013-02-07 13:37:00,
2013-02-07 08:42:00,19.9,3.9,30.53,North,0,0.0,3.0,49,0.00,,,0.00,meteohub,2013-02-07 13:42:00,
2013-02-07 08:47:00,20.3,3.4,30.56,WNW,292,2.0,3.0,47,0.00,,,0.00,meteohub,2013-02-07 13:47:00,
2013-02-07 08:52:00,20.8,3.7,30.56,NW,315,2.0,3.0,47,0.00,,,0.00,meteohub,2013-02-07 13:52:00,
2013-02-07 08:57:00,21.0,3.6,30.56,NNW,338,2.0,3.0,46,0.00,,,0.00,meteohub,2013-02-07 13:57:00,
2013-02-07 09:02:00,21.2,3.7,30.56,North,0,3.0,3.0,46,0.00,,,0.00,meteohub,2013-02-07 14:02:00,
2013-02-07 09:07:00,21.7,3.7,30.53,NNW,338,2.0,3.0,45,0.00,,,0.00,meteohub,2013-02-07 14:07:00,
2013-02-07 09:12:00,22.1,4.1,30.53,North,0,3.0,4.0,45,0.00,,,0.00,meteohub,2013-02-07 14:12:00,
2013-02-07 09:17:00,22.5,3.9,30.56,NNW,338,2.0,4.0,44,0.00,,,0.00,meteohub,2013-02-07 14:17:00,
2013-02-07 09:22:00,22.8,4.3,30.56,ENE,68,1.0,4.0,44,0.00,,,0.00,meteohub,2013-02-07 14:22:00,
2013-02-07 09:27:00,23.4,4.6,30.56,WNW,292,1.0,4.0,44,0.00,,,0.00,meteohub,2013-02-07 14:27:00,
2013-02-07 09:32:00,23.7,4.5,30.56,NNW,338,3.0,4.0,43,0.00,,,0.00,meteohub,2013-02-07 14:32:00,
2013-02-07 09:37:00,23.9,4.1,30.56,WNW,292,3.0,4.0,42,0.00,,,0.00,meteohub,2013-02-07 14:37:00,
2013-02-07 09:42:00,24.3,4.5,30.56,NW,315,3.0,4.0,42,0.00,,,0.00,meteohub,2013-02-07 14:42:00,
2013-02-07 09:47:00,24.6,4.8,30.56,NNW,338,4.0,4.0,42,0.00,,,0.00,meteohub,2013-02-07 14:47:00,
2013-02-07 09:52:00,24.6,4.8,30.56,NNW,338,2.0,4.0,42,0.00,,,0.00,meteohub,2013-02-07 14:52:00,
2013-02-07 10:02:00,25.2,4.8,30.56,NNW,338,3.0,5.0,41,0.00,,,0.00,meteohub,2013-02-07 15:02:00,
2013-02-07 10:12:00,26.1,4.5,30.56,NNE,22,3.0,6.0,39,0.00,,,0.00,meteohub,2013-02-07 15:12:00,
2013-02-07 10:17:00,26.1,4.5,30.56,NNW,338,4.0,8.0,39,0.00,,,0.00,meteohub,2013-02-07 15:17:00,
2013-02-07 10:22:00,26.1,3.9,30.56,WNW,292,3.0,8.0,38,0.00,,,0.00,meteohub,2013-02-07 15:22:00,
2013-02-07 10:27:00,27.1,5.5,30.56,WNW,292,2.0,8.0,39,0.00,,,0.00,meteohub,2013-02-07 15:27:00,
2013-02-07 10:32:00,27.5,5.2,30.56,NNW,338,4.0,5.0,38,0.00,,,0.00,meteohub,2013-02-07 15:32:00,
2013-02-07 10:37:00,27.3,4.5,30.56,WNW,292,3.0,6.0,37,0.00,,,0.00,meteohub,2013-02-07 15:37:00,
2013-02-07 10:42:00,27.1,3.7,30.56,North,0,4.0,6.0,36,0.00,,,0.00,meteohub,2013-02-07 15:42:00,
2013-02-07 10:47:00,27.0,3.6,30.56,NW,315,3.0,5.0,36,0.00,,,0.00,meteohub,2013-02-07 15:47:00,
2013-02-07 10:57:00,27.0,3.0,30.56,NNE,22,3.0,7.0,35,0.00,,,0.00,meteohub,2013-02-07 15:57:00,
2013-02-07 11:02:00,27.0,3.0,30.56,North,0,5.0,7.0,35,0.00,,,0.00,meteohub,2013-02-07 16:02:00,
2013-02-07 11:07:00,27.1,3.2,30.56,NNE,22,3.0,8.0,35,0.00,,,0.00,meteohub,2013-02-07 16:07:00,
2013-02-07 11:12:00,27.1,3.2,30.56,NNE,22,3.0,8.0,35,0.00,,,0.00,meteohub,2013-02-07 16:12:00,
2013-02-07 11:17:00,27.3,3.4,30.56,NNW,338,3.0,6.0,35,0.00,,,0.00,meteohub,2013-02-07 16:17:00,
2013-02-07 11:22:00,28.0,4.6,30.56,WNW,292,3.0,6.0,36,0.00,,,0.00,meteohub,2013-02-07 16:22:00,
2013-02-07 11:27:00,28.6,4.5,30.56,NW,315,3.0,6.0,35,0.00,,,0.00,meteohub,2013-02-07 16:27:00,
2013-02-07 11:32:00,28.6,4.5,30.56,NNW,338,3.0,5.0,35,0.00,,,0.00,meteohub,2013-02-07 16:32:00,
2013-02-07 11:37:00,28.4,4.3,30.56,NE,45,4.0,6.0,35,0.00,,,0.00,meteohub,2013-02-07 16:37:00,
2013-02-07 11:42:00,28.8,4.6,30.56,NNW,338,2.0,6.0,35,0.00,,,0.00,meteohub,2013-02-07 16:42:00,
2013-02-07 11:47:00,28.9,4.8,30.56,North,0,3.0,5.0,35,0.00,,,0.00,meteohub,2013-02-07 16:47:00,
2013-02-07 11:52:00,29.5,5.2,30.56,NNE,22,4.0,6.0,35,0.00,,,0.00,meteohub,2013-02-07 16:52:00,
2013-02-07 11:57:00,29.5,5.2,30.56,ENE,68,3.0,6.0,35,0.00,,,0.00,meteohub,2013-02-07 16:57:00,
2013-02-07 12:02:00,30.0,5.7,30.53,NNW,338,3.0,6.0,35,0.00,,,0.00,meteohub,2013-02-07 17:02:00,
2013-02-07 12:07:00,29.8,5.0,30.53,WNW,292,2.0,6.0,34,0.00,,,0.00,meteohub,2013-02-07 17:07:00,
2013-02-07 12:12:00,29.5,4.6,30.53,North,0,3.0,6.0,34,0.00,,,0.00,meteohub,2013-02-07 17:12:00,
2013-02-07 12:17:00,29.7,4.8,30.53,West,270,3.0,5.0,34,0.00,,,0.00,meteohub,2013-02-07 17:17:00,
2013-02-07 12:22:00,29.8,5.0,30.53,North,0,4.0,4.0,34,0.00,,,0.00,meteohub,2013-02-07 17:22:00,
2013-02-07 12:27:00,29.8,5.0,30.53,NNW,338,3.0,4.0,34,0.00,,,0.00,meteohub,2013-02-07 17:27:00,
2013-02-07 12:32:00,30.2,5.2,30.50,NW,315,3.0,7.0,34,0.00,,,0.00,meteohub,2013-02-07 17:32:00,
2013-02-07 12:37:00,30.2,5.2,30.50,NNE,22,4.0,7.0,34,0.00,,,0.00,meteohub,2013-02-07 17:37:00,
2013-02-07 12:42:00,30.2,5.2,30.50,North,0,4.0,6.0,34,0.00,,,0.00,meteohub,2013-02-07 17:42:00,
2013-02-07 12:47:00,30.4,4.8,30.50,NE,45,0.0,6.0,33,0.00,,,0.00,meteohub,2013-02-07 17:47:00,
2013-02-07 12:52:00,30.6,5.0,30.50,North,0,4.0,6.0,33,0.00,,,0.00,meteohub,2013-02-07 17:52:00,
2013-02-07 12:57:00,30.6,5.0,30.50,NW,315,5.0,6.0,33,0.00,,,0.00,meteohub,2013-02-07 17:57:00,
2013-02-07 13:02:00,30.7,5.0,30.50,NNE,22,5.0,5.0,33,0.00,,,0.00,meteohub,2013-02-07 18:02:00,
2013-02-07 13:07:00,30.4,4.8,30.53,NNE,22,2.0,5.0,33,0.00,,,0.00,meteohub,2013-02-07 18:07:00,
2013-02-07 13:12:00,30.6,5.0,30.53,SSE,158,5.0,5.0,33,0.00,,,0.00,meteohub,2013-02-07 18:12:00,
2013-02-07 13:17:00,30.7,5.0,30.53,WNW,292,3.0,5.0,33,0.00,,,0.00,meteohub,2013-02-07 18:17:00,
2013-02-07 13:22:00,30.6,5.0,30.53,North,0,1.0,5.0,33,0.00,,,0.00,meteohub,2013-02-07 18:22:00,
2013-02-07 13:27:00,30.9,5.2,30.53,NNE,22,3.0,5.0,33,0.00,,,0.00,meteohub,2013-02-07 18:27:00,
2013-02-07 13:32:00,30.6,5.0,30.53,ENE,68,3.0,5.0,33,0.00,,,0.00,meteohub,2013-02-07 18:32:00,
2013-02-07 13:37:00,30.2,4.6,30.53,West,270,1.0,5.0,33,0.00,,,0.00,meteohub,2013-02-07 18:37:00,
2013-02-07 13:42:00,30.2,4.6,30.53,NNW,338,4.0,5.0,33,0.00,,,0.00,meteohub,2013-02-07 18:42:00,
2013-02-07 13:47:00,30.2,4.6,30.53,North,0,4.0,5.0,33,0.00,,,0.00,meteohub,2013-02-07 18:47:00,
2013-02-07 13:52:00,30.2,4.6,30.53,North,0,2.0,5.0,33,0.00,,,0.00,meteohub,2013-02-07 18:52:00,
2013-02-07 13:57:00,30.2,5.2,30.53,NE,45,4.0,5.0,34,0.00,,,0.00,meteohub,2013-02-07 18:57:00,
2013-02-07 14:02:00,30.4,5.4,30.53,WNW,292,2.0,5.0,34,0.00,,,0.00,meteohub,2013-02-07 19:02:00,
2013-02-07 14:07:00,30.4,4.8,30.53,NE,45,2.0,4.0,33,0.00,,,0.00,meteohub,2013-02-07 19:07:00,
2013-02-07 14:12:00,30.6,5.5,30.53,SE,135,1.0,4.0,34,0.00,,,0.00,meteohub,2013-02-07 19:12:00,
2013-02-07 14:17:00,30.7,5.0,30.50,NNW,338,3.0,3.0,33,0.00,,,0.00,meteohub,2013-02-07 19:17:00,
2013-02-07 14:22:00,30.6,5.0,30.50,NE,45,0.0,3.0,33,0.00,,,0.00,meteohub,2013-02-07 19:22:00,
2013-02-07 14:27:00,30.4,4.8,30.50,WNW,292,3.0,3.0,33,0.00,,,0.00,meteohub,2013-02-07 19:27:00,
2013-02-07 14:32:00,30.2,5.2,30.50,WNW,292,1.0,3.0,34,0.00,,,0.00,meteohub,2013-02-07 19:32:00,
2013-02-07 14:37:00,30.2,4.6,30.50,NNE,22,2.0,3.0,33,0.00,,,0.00,meteohub,2013-02-07 19:37:00,
2013-02-07 14:42:00,30.2,4.6,30.50,NNW,338,3.0,3.0,33,0.00,,,0.00,meteohub,2013-02-07 19:42:00,
2013-02-07 14:47:00,30.2,4.6,30.50,NE,45,1.0,3.0,33,0.00,,,0.00,meteohub,2013-02-07 19:47:00,
2013-02-07 14:52:00,30.2,4.6,30.50,North,0,0.0,3.0,33,0.00,,,0.00,meteohub,2013-02-07 19:52:00,
2013-02-07 14:57:00,30.2,4.6,30.50,North,0,2.0,4.0,33,0.00,,,0.00,meteohub,2013-02-07 19:57:00,
2013-02-07 15:02:00,30.2,4.6,30.53,NE,45,2.0,4.0,33,0.00,,,0.00,meteohub,2013-02-07 20:02:00,
2013-02-07 15:07:00,30.2,4.6,30.53,NE,45,2.0,4.0,33,0.00,,,0.00,meteohub,2013-02-07 20:07:00,
2013-02-07 15:12:00,30.4,4.8,30.53,SE,135,2.0,4.0,33,0.00,,,0.00,meteohub,2013-02-07 20:12:00,
2013-02-07 15:17:00,30.2,4.6,30.53,South,180,0.0,5.0,33,0.00,,,0.00,meteohub,2013-02-07 20:17:00,
2013-02-07 15:22:00,30.2,4.6,30.53,ESE,112,0.0,5.0,33,0.00,,,0.00,meteohub,2013-02-07 20:22:00,
2013-02-07 15:27:00,30.2,4.6,30.53,ENE,68,3.0,4.0,33,0.00,,,0.00,meteohub,2013-02-07 20:27:00,
2013-02-07 15:32:00,30.2,4.6,30.53,NNE,22,3.0,4.0,33,0.00,,,0.00,meteohub,2013-02-07 20:32:00,
2013-02-07 15:37:00,29.8,4.3,30.53,NNW,338,1.0,3.0,33,0.00,,,0.00,meteohub,2013-02-07 20:37:00,
2013-02-07 15:42:00,29.7,4.1,30.53,ESE,112,0.0,4.0,33,0.00,,,0.00,meteohub,2013-02-07 20:42:00,
2013-02-07 15:47:00,29.5,3.9,30.53,North,0,0.0,4.0,33,0.00,,,0.00,meteohub,2013-02-07 20:47:00,
2013-02-07 15:52:00,29.5,3.9,30.53,North,0,1.0,3.0,33,0.00,,,0.00,meteohub,2013-02-07 20:52:00,
2013-02-07 15:57:00,29.5,3.9,30.53,SE,135,1.0,3.0,33,0.00,,,0.00,meteohub,2013-02-07 20:57:00,
2013-02-07 16:02:00,29.7,4.1,30.53,ENE,68,3.0,3.0,33,0.00,,,0.00,meteohub,2013-02-07 21:02:00,
2013-02-07 16:07:00,29.7,4.1,30.53,NNE,22,2.0,3.0,33,0.00,,,0.00,meteohub,2013-02-07 21:07:00,
2013-02-07 16:12:00,29.5,3.9,30.53,North,0,3.0,4.0,33,0.00,,,0.00,meteohub,2013-02-07 21:12:00,
2013-02-07 16:17:00,29.5,4.6,30.50,NNE,22,3.0,4.0,34,0.00,,,0.00,meteohub,2013-02-07 21:17:00,
2013-02-07 16:22:00,29.3,4.5,30.50,South,180,0.0,4.0,34,0.00,,,0.00,meteohub,2013-02-07 21:22:00,
2013-02-07 16:27:00,29.1,3.6,30.50,NNE,22,1.0,4.0,33,0.00,,,0.00,meteohub,2013-02-07 21:27:00,
2013-02-07 16:32:00,28.9,4.1,30.50,North,0,0.0,3.0,34,0.00,,,0.00,meteohub,2013-02-07 21:32:00,
2013-02-07 16:37:00,28.8,3.9,30.50,ENE,68,0.0,2.0,34,0.00,,,0.00,meteohub,2013-02-07 21:37:00,
2013-02-07 16:42:00,28.6,3.2,30.50,NE,45,2.0,2.0,33,0.00,,,0.00,meteohub,2013-02-07 21:42:00,
2013-02-07 16:47:00,28.6,3.2,30.50,NNE,22,0.0,2.0,33,0.00,,,0.00,meteohub,2013-02-07 21:47:00,
2013-02-07 16:52:00,28.4,3.6,30.50,ENE,68,0.0,2.0,34,0.00,,,0.00,meteohub,2013-02-07 21:52:00,
2013-02-07 16:57:00,28.2,3.6,30.50,ENE,68,0.0,2.0,34,0.00,,,0.00,meteohub,2013-02-07 21:57:00,
2013-02-07 17:02:00,28.0,3.4,30.50,East,90,1.0,2.0,34,0.00,,,0.00,meteohub,2013-02-07 22:02:00,
2013-02-07 17:07:00,27.9,3.2,30.50,East,90,0.0,4.0,34,0.00,,,0.00,meteohub,2013-02-07 22:07:00,
2013-02-07 17:12:00,27.7,3.0,30.50,NNE,22,0.0,4.0,34,0.00,,,0.00,meteohub,2013-02-07 22:12:00,
2013-02-07 17:17:00,27.5,2.8,30.50,NE,45,1.0,4.0,34,0.00,,,0.00,meteohub,2013-02-07 22:17:00,
2013-02-07 17:22:00,27.5,2.8,30.50,ENE,68,2.0,3.0,34,0.00,,,0.00,meteohub,2013-02-07 22:22:00,
2013-02-07 17:27:00,27.3,2.7,30.50,NE,45,2.0,3.0,34,0.00,,,0.00,meteohub,2013-02-07 22:27:00,
2013-02-07 17:32:00,27.3,2.7,30.53,North,0,2.0,4.0,34,0.00,,,0.00,meteohub,2013-02-07 22:32:00,
2013-02-07 17:37:00,27.1,2.5,30.53,WSW,248,0.0,4.0,34,0.00,,,0.00,meteohub,2013-02-07 22:37:00,
2013-02-07 17:42:00,27.1,2.5,30.53,NE,45,0.0,4.0,34,0.00,,,0.00,meteohub,2013-02-07 22:42:00,
2013-02-07 17:47:00,27.1,2.5,30.53,North,0,2.0,4.0,34,0.00,,,0.00,meteohub,2013-02-07 22:47:00,
2013-02-07 17:52:00,27.0,2.3,30.53,East,90,2.0,3.0,34,0.00,,,0.00,meteohub,2013-02-07 22:52:00,
2013-02-07 17:57:00,27.0,2.3,30.53,NE,45,2.0,4.0,34,0.00,,,0.00,meteohub,2013-02-07 22:57:00,
2013-02-07 18:02:00,27.0,2.3,30.53,East,90,5.0,6.0,34,0.00,,,0.00,meteohub,2013-02-07 23:02:00,
2013-02-07 18:07:00,26.8,2.1,30.53,NE,45,2.0,6.0,34,0.00,,,0.00,meteohub,2013-02-07 23:07:00,
2013-02-07 18:12:00,26.6,2.1,30.53,NNE,22,4.0,6.0,34,0.00,,,0.00,meteohub,2013-02-07 23:12:00,
2013-02-07 18:17:00,26.6,2.1,30.53,NNE,22,3.0,5.0,34,0.00,,,0.00,meteohub,2013-02-07 23:17:00,
2013-02-07 18:22:00,26.4,1.9,30.53,East,90,0.0,6.0,34,0.00,,,0.00,meteohub,2013-02-07 23:22:00,
2013-02-07 18:27:00,26.4,2.5,30.53,NNE,22,0.0,6.0,35,0.00,,,0.00,meteohub,2013-02-07 23:27:00,
2013-02-07 18:32:00,26.2,1.8,30.53,NNW,338,2.0,6.0,34,0.00,,,0.00,meteohub,2013-02-07 23:32:00,
2013-02-07 18:37:00,26.1,1.6,30.53,North,0,2.0,3.0,34,0.00,,,0.00,meteohub,2013-02-07 23:37:00,
2013-02-07 18:42:00,26.1,1.6,30.53,NE,45,0.0,3.0,34,0.00,,,0.00,meteohub,2013-02-07 23:42:00,
2013-02-07 18:47:00,26.1,1.6,30.53,NNE,22,2.0,3.0,34,0.00,,,0.00,meteohub,2013-02-07 23:47:00,
2013-02-07 18:52:00,25.9,1.4,30.53,ENE,68,2.0,3.0,34,0.00,,,0.00,meteohub,2013-02-07 23:52:00,
2013-02-07 18:57:00,25.7,1.2,30.53,East,90,0.0,3.0,34,0.00,,,0.00,meteohub,2013-02-07 23:57:00,
2013-02-07 19:02:00,25.5,1.8,30.53,NE,45,0.0,3.0,35,0.00,,,0.00,meteohub,2013-02-08 00:02:00,
2013-02-07 19:07:00,25.5,1.8,30.53,East,90,1.0,3.0,35,0.00,,,0.00,meteohub,2013-02-08 00:07:00,
2013-02-07 19:12:00,25.5,1.8,30.53,East,90,0.0,4.0,35,0.00,,,0.00,meteohub,2013-02-08 00:12:00,
2013-02-07 19:17:00,25.3,1.6,30.53,NE,45,1.0,4.0,35,0.00,,,0.00,meteohub,2013-02-08 00:17:00,
2013-02-07 19:22:00,25.3,1.6,30.53,ESE,112,3.0,4.0,35,0.00,,,0.00,meteohub,2013-02-08 00:22:00,
2013-02-07 19:27:00,25.3,1.6,30.53,ENE,68,3.0,3.0,35,0.00,,,0.00,meteohub,2013-02-08 00:27:00,
2013-02-07 19:32:00,25.3,1.6,30.50,ENE,68,0.0,3.0,35,0.00,,,0.00,meteohub,2013-02-08 00:32:00,
2013-02-07 19:37:00,25.3,1.6,30.50,North,0,2.0,3.0,35,0.00,,,0.00,meteohub,2013-02-08 00:37:00,
2013-02-07 19:42:00,25.3,1.6,30.50,ENE,68,2.0,3.0,35,0.00,,,0.00,meteohub,2013-02-08 00:42:00,
2013-02-07 19:47:00,25.5,1.8,30.53,NE,45,4.0,4.0,35,0.00,,,0.00,meteohub,2013-02-08 00:47:00,
2013-02-07 19:52:00,25.5,1.8,30.53,ENE,68,3.0,4.0,35,0.00,,,0.00,meteohub,2013-02-08 00:52:00,
2013-02-07 19:57:00,25.5,1.8,30.53,East,90,2.0,4.0,35,0.00,,,0.00,meteohub,2013-02-08 00:57:00,
2013-02-07 20:02:00,25.5,1.8,30.53,ESE,112,0.0,6.0,35,0.00,,,0.00,meteohub,2013-02-08 01:02:00,
2013-02-07 20:07:00,25.5,1.8,30.53,WSW,248,0.0,6.0,35,0.00,,,0.00,meteohub,2013-02-08 01:07:00,
2013-02-07 20:12:00,25.5,1.8,30.53,NNE,22,4.0,6.0,35,0.00,,,0.00,meteohub,2013-02-08 01:12:00,
2013-02-07 20:17:00,25.5,1.8,30.53,ENE,68,4.0,4.0,35,0.00,,,0.00,meteohub,2013-02-08 01:17:00,
2013-02-07 20:22:00,25.5,1.8,30.53,North,0,0.0,4.0,35,0.00,,,0.00,meteohub,2013-02-08 01:22:00,
2013-02-07 20:27:00,25.5,1.8,30.53,SE,135,0.0,4.0,35,0.00,,,0.00,meteohub,2013-02-08 01:27:00,
2013-02-07 20:32:00,25.5,1.8,30.50,North,0,2.0,4.0,35,0.00,,,0.00,meteohub,2013-02-08 01:32:00,
2013-02-07 20:37:00,25.5,1.8,30.50,SW,225,2.0,4.0,35,0.00,,,0.00,meteohub,2013-02-08 01:37:00,
2013-02-07 20:42:00,25.3,1.6,30.50,SE,135,3.0,4.0,35,0.00,,,0.00,meteohub,2013-02-08 01:42:00,
2013-02-07 20:47:00,25.3,1.6,30.53,SE,135,2.0,4.0,35,0.00,,,0.00,meteohub,2013-02-08 01:47:00,
2013-02-07 20:52:00,25.3,1.6,30.53,NE,45,0.0,3.0,35,0.00,,,0.00,meteohub,2013-02-08 01:52:00,
2013-02-07 20:57:00,25.3,1.6,30.53,NE,45,1.0,3.0,35,0.00,,,0.00,meteohub,2013-02-08 01:57:00,
2013-02-07 21:02:00,25.3,1.6,30.53,NE,45,0.0,4.0,35,0.00,,,0.00,meteohub,2013-02-08 02:02:00,
2013-02-07 21:07:00,25.3,1.6,30.53,NNE,22,2.0,4.0,35,0.00,,,0.00,meteohub,2013-02-08 02:07:00,
2013-02-07 21:12:00,25.3,1.6,30.53,SSE,158,0.0,4.0,35,0.00,,,0.00,meteohub,2013-02-08 02:12:00,
2013-02-07 21:17:00,25.3,1.6,30.53,East,90,0.0,4.0,35,0.00,,,0.00,meteohub,2013-02-08 02:17:00,
2013-02-07 21:22:00,25.3,1.6,30.53,ENE,68,0.0,4.0,35,0.00,,,0.00,meteohub,2013-02-08 02:22:00,
2013-02-07 21:27:00,25.3,1.6,30.53,NW,315,0.0,3.0,35,0.00,,,0.00,meteohub,2013-02-08 02:27:00,
2013-02-07 21:32:00,25.3,1.6,30.53,North,0,1.0,3.0,35,0.00,,,0.00,meteohub,2013-02-08 02:32:00,
2013-02-07 21:37:00,25.3,1.6,30.53,North,0,1.0,2.0,35,0.00,,,0.00,meteohub,2013-02-08 02:37:00,
2013-02-07 21:42:00,25.3,1.6,30.53,East,90,2.0,3.0,35,0.00,,,0.00,meteohub,2013-02-08 02:42:00,
2013-02-07 21:47:00,25.3,1.6,30.50,SE,135,3.0,4.0,35,0.00,,,0.00,meteohub,2013-02-08 02:47:00,
2013-02-07 21:52:00,25.3,2.1,30.50,SE,135,0.0,4.0,36,0.00,,,0.00,meteohub,2013-02-08 02:52:00,
2013-02-07 21:57:00,25.3,2.1,30.50,SSE,158,0.0,4.0,36,0.00,,,0.00,meteohub,2013-02-08 02:57:00,
2013-02-07 22:02:00,25.3,2.1,30.53,SSE,158,3.0,3.0,36,0.00,,,0.00,meteohub,2013-02-08 03:02:00,
2013-02-07 22:07:00,25.3,2.1,30.53,ENE,68,1.0,3.0,36,0.00,,,0.00,meteohub,2013-02-08 03:07:00,
2013-02-07 22:12:00,25.3,2.1,30.53,ESE,112,2.0,4.0,36,0.00,,,0.00,meteohub,2013-02-08 03:12:00,
2013-02-07 22:17:00,25.3,2.7,30.53,WNW,292,0.0,4.0,37,0.00,,,0.00,meteohub,2013-02-08 03:17:00,
2013-02-07 22:22:00,25.3,2.7,30.53,SSW,202,0.0,4.0,37,0.00,,,0.00,meteohub,2013-02-08 03:22:00,
2013-02-07 22:27:00,25.3,2.7,30.53,SSE,158,2.0,3.0,37,0.00,,,0.00,meteohub,2013-02-08 03:27:00,
2013-02-07 22:32:00,25.3,3.4,30.50,SSE,158,4.0,4.0,38,0.00,,,0.00,meteohub,2013-02-08 03:32:00,
2013-02-07 22:37:00,25.3,3.4,30.50,SW,225,0.0,6.0,38,0.00,,,0.00,meteohub,2013-02-08 03:37:00,
2013-02-07 22:42:00,25.3,3.4,30.50,South,180,1.0,6.0,38,0.00,,,0.00,meteohub,2013-02-08 03:42:00,
2013-02-07 22:47:00,25.3,3.9,30.53,ESE,112,1.0,6.0,39,0.00,,,0.00,meteohub,2013-02-08 03:47:00,
2013-02-07 22:52:00,25.3,3.9,30.53,South,180,3.0,4.0,39,0.00,,,0.00,meteohub,2013-02-08 03:52:00,
2013-02-07 22:57:00,25.3,3.9,30.53,South,180,3.0,4.0,39,0.00,,,0.00,meteohub,2013-02-08 03:57:00,
2013-02-07 23:02:00,25.2,4.3,30.53,SSE,158,1.0,4.0,40,0.00,,,0.00,meteohub,2013-02-08 04:02:00,
2013-02-07 23:07:00,25.2,4.3,30.53,SSE,158,3.0,5.0,40,0.00,,,0.00,meteohub,2013-02-08 04:07:00,
2013-02-07 23:12:00,25.2,4.8,30.53,SSW,202,3.0,5.0,41,0.00,,,0.00,meteohub,2013-02-08 04:12:00,
2013-02-07 23:17:00,25.2,4.8,30.53,SE,135,0.0,4.0,41,0.00,,,0.00,meteohub,2013-02-08 04:17:00,
2013-02-07 23:22:00,25.2,4.8,30.53,SW,225,2.0,5.0,41,0.00,,,0.00,meteohub,2013-02-08 04:22:00,
2013-02-07 23:27:00,25.2,4.8,30.53,SSE,158,2.0,5.0,41,0.00,,,0.00,meteohub,2013-02-08 04:27:00,
2013-02-07 23:32:00,25.2,4.8,30.50,NE,45,0.0,3.0,41,0.00,,,0.00,meteohub,2013-02-08 04:32:00,
2013-02-07 23:37:00,25.0,4.6,30.50,NNW,338,0.0,3.0,41,0.00,,,0.00,meteohub,2013-02-08 04:37:00,
2013-02-07 23:42:00,25.0,5.2,30.50,NW,315,0.0,3.0,42,0.00,,,0.00,meteohub,2013-02-08 04:42:00,
2013-02-07 23:47:00,25.0,5.2,30.53,SSE,158,0.0,1.0,42,0.00,,,0.00,meteohub,2013-02-08 04:47:00,
2013-02-07 23:52:00,24.8,5.0,30.53,ESE,112,0.0,2.0,42,0.00,,,0.00,meteohub,2013-02-08 04:52:00,
2013-02-07 23:57:00,24.6,4.8,30.53,East,90,0.0,2.0,42,0.00,,,0.00,meteohub,2013-02-08 04:57:00,